CAS-5A (FO-118)

Last updated on Tue Jan 14 2025 00:03:00 GMT+0000 (Coordinated Universal Time)

1 54684U 22167C 25013.56373476 .00145529 00000+0 13508-2 0 9991 2 54684 97.6113 174.0254 0002044 94.6318 265.5175 15.66986031116756
UTC large
Height (km)
Speed (km/s)
/
Latitude / Longitude
Inclination (degrees)
Orbital Period (minutes)
Azimuth
Elevation
Range (km)
Doppler Factor

Next 0 passes for location: London (51.5072 / 0.1276)

Sorry there are no passes over London.